H-2A DEB, 28237

Orbit data source: Space-Track

H-2A DEB, 28237 is space debris in HEO originally from a launch on Mon, 04 Feb 2002 UTC launched from the Tanegashima Space Center (TNSTA). Debris objects in space refer to the collection of defunct objects orbiting the Earth. Examples of debris include non-operational satellites, rocket bodies, and fragments generated from explosions, collisions, or faulty payload assembly.

Loading next visibility...
Identifier
28237, 2002-003D
Orbit
HEO
Country
Flag of JPJP / JPN
Related business
Manufacturer
MHI Tobishima
Mission
Spacecraft
Bus & Motor
Unknown
Mass
~200 kg wet, ~200 kg dry
Launch date (UTC)
2002-02-04 (24 years ago)
Launch vehicle
Unknown
Launch site
Tanegashima Space Center (TNSTA)
Object type
Payload
Rocket body
Debris
Shape & HBR
Half Cyl, 2.0 m
Radar Cross Section
13.425 m², Large (>1 m²)

Expand to show TLE details & history
Last TLE update: 1 day ago

TLE from 1 day ago
0 H-2A DEB
1 28237U 02003D   26208.82414997  .00004959  00000-0  45297-2 0  9995
2 28237  28.2213 159.9860 7095663  97.5682 340.9671  2.47354815210803
Epoch: 2026-07-27T19:46Z
TLE epoch observation values (Epoch: 2026-07-27T19:46:46.557Z)
Latitude
0.00003°
Longitude
-82.32795°
Altitude
6,285.847 km
Speed
6.759 km/s
True Right ascension
10h 39m 28s
True Declination
0° 00' 00"
Sunlit
Object was in daylight at epoch
Visualization orbit readout
Latitude
Unknown
Longitude
Unknown
Altitude
Unknown
Speed
Unknown
Apparent Right ascension
Unknown
Apparent Declination
Unknown
Sunlit
N/A
Visualization observer readout
Local Sidereal Time
11:34:53
Azimuth
Unknown
Elevation
Unknown
Doppler factor
Unknown
Orbital elements
Apogee altitude
33,110.844 km
Perigee altitude
330.542 km
Semi-major axis
23,098.83 km
Eccentricity
0.70957
Inclination
28.2213°
RAAN
159.986°
Arg. of periapsis
97.5682°
True anomaly
262.52939°
Mean anomaly
340.9671°
Eccentric anomaly
309.67631°
Mean motion
0.61824 °/min
Orbital period
582.3 mins
BSTAR
0.0045297
Loading maneuver chart data...
Computing Atmospheric mass density...
Loading historical data...
Loading historical data...
Loading historical data...
Loading historical data...
Loading historical data...
Loading historical data...
Loading historical data...
Other satellites on launch #3 in the year 2002 (2002-02-04 UTC)

Documentation

Showing up to 5 results
|